Location: Stonelick Lake State Park
(39.2170°N, 84.0850°W)
Time: 11:12:07
(UTC-05:00)

Amateur Radio Satellites - All Passes

Search period start: 04 December 2016 10:42
Search period end: 05 December 2016 10:42
Location: Stonelick Lake State Park, 39.2170°N, 84.0850°W

Satellite Date Start Highest point End Downlink Frequencies (MHz)
Time Altitude Azimuth
DUCHIFAT 1 04 Dec 10:45:23 10:48:47 23° 68° (ENE) 10:52:10 145.980
UWE-3 04 Dec 10:47:12 10:48:39 11° 297° (WNW) 10:50:05 435.000/436.395/437.385
DANDE 04 Dec 10:52:11 10:57:19 67° 99° (E) 11:01:09 436.750
UNISAT 6 04 Dec 10:53:15 10:57:13 27° 264° (W) 11:01:12 437.425
POPSAT HIP 1 04 Dec 11:00:46 11:04:46 39° 72° (ENE) 11:08:47 437.405
PCSat 04 Dec 11:02:30 11:05:33 15° 104° (ESE) 11:08:37 145.827
TIGRISAT 04 Dec 11:25:44 11:28:09 14° 269° (W) 11:30:35 435.000
ANTELSAT 04 Dec 11:27:01 11:29:06 13° 269° (W) 11:31:11 437.575/2403.000
RS-15 04 Dec 11:27:23 11:36:59 26° 335° (NNW) 11:46:50 29.354- 29.394
CUBEBUG 1 04 Dec 11:32:27 11:35:45 20° 94° (E) 11:39:01 437.445
Cosmos 2499 04 Dec 11:32:41 11:40:25 35° 71° (ENE) 11:47:38 435.465 / 435.565
JAS-2 04 Dec 11:37:33 11:44:12 62° 258° (WSW) 11:50:06 435.910
VELOX 1 04 Dec 11:38:27 11:41:05 15° 92° (E) 11:43:44 145.980
HUMSAT D 04 Dec 11:41:32 11:44:47 23° 291° (WNW) 11:48:00 437.325/437.525
BUGSAT 1 04 Dec 11:49:57 11:53:59 46° 73° (ENE) 11:58:04 437.445
NANOSAT C BR1 04 Dec 11:56:48 12:00:55 47° 260° (W) 12:05:04 145.865
DX 1 04 Dec 11:59:05 12:01:09 13° 92° (E) 12:03:14 434.975-435.025
QB50P2 04 Dec 12:00:51 12:04:49 37° 262° (W) 12:08:49 145.880/145.840
POLYITAN 1 04 Dec 12:01:23 12:05:23 39° 262° (W) 12:09:26 437.675
UKube-1 04 Dec 12:10:22 12:12:18 13° 92° (E) 12:14:12 .
AO-85 04 Dec 12:12:01 12:15:57 68° 240° (WSW) 12:19:46 145.980
QB50P1 04 Dec 12:15:32 12:19:12 27° 264° (W) 12:22:52 145.935-145.965
DUCHIFAT 1 04 Dec 12:20:39 12:24:18 28° 264° (W) 12:27:59 145.980
ESTCUBE 1 04 Dec 12:21:11 12:25:41 70° 285° (WNW) 12:30:10 437.505/2401.250
50 SAT 04 Dec 12:24:12 12:27:34 39° 99° (E) 12:30:55 437.505
SPROUT 04 Dec 12:25:40 12:29:33 33° 97° (E) 12:33:25 437.525
Gurwin Techsat 1B 04 Dec 12:27:04 12:30:16 16° 62° (ENE) 12:33:28 435.225
GONETS M04 04 Dec 12:27:36 12:36:18 69° 80° (E) 12:45:00
AISAT 04 Dec 12:36:15 12:40:44 73° 102° (ESE) 12:45:11 437.250
POPSAT HIP 1 04 Dec 12:37:57 12:40:41 16° 267° (W) 12:43:26 437.405
PCSat 04 Dec 12:42:57 12:48:19 67° 300° (WNW) 12:53:45 145.827
Oscar 19 04 Dec 12:44:58 12:49:49 44° 70° (ENE) 12:54:40 437.125/150
AO-7 04 Dec 13:04:32 13:08:13 14° 47° (NE) 13:11:54 29.400- 29.500
CUBEBUG 1 04 Dec 13:08:03 13:12:05 35° 289° (WNW) 13:16:06 437.445
VELOX 1 04 Dec 13:13:30 13:17:46 46° 288° (WNW) 13:22:02 145.980
Cosmos 2499 04 Dec 13:25:35 13:33:45 49° 271° (W) 13:41:21 435.465 / 435.565
BUGSAT 1 04 Dec 13:27:26 13:29:35 14° 268° (W) 13:31:45 437.445
DX 1 04 Dec 13:33:20 13:37:37 52° 287° (WNW) 13:41:53 434.975-435.025
UKube-1 04 Dec 13:44:23 13:48:37 52° 287° (WNW) 13:52:49 .
RS-15 04 Dec 13:47:02 13:55:41 21° 11° (N) 14:04:19 29.354- 29.394
TISAT 1 04 Dec 13:54:21 13:58:30 52° 100° (E) 14:02:36 437.305
M-CUBED/EXP-1 PRIME 04 Dec 13:57:33 13:58:47 11° 94° (E) 13:59:59 437.505
50 SAT 04 Dec 13:59:09 14:00:29 12° 294° (WNW) 14:01:50 437.505
SPROUT 04 Dec 14:02:05 14:05:15 20° 293° (WNW) 14:08:23 437.525
Gurwin Techsat 1B 04 Dec 14:04:22 14:09:38 65° 258° (WSW) 14:14:57 435.225
AISAT 04 Dec 14:15:19 14:16:33 11° 298° (WNW) 14:17:48 437.250
Oscar 19 04 Dec 14:25:34 14:29:18 20° 266° (W) 14:33:05 437.125/150
GONETS M04 04 Dec 14:25:51 14:32:15 24° 279° (W) 14:38:41
SWISSCUBE 04 Dec 14:28:45 14:32:43 26° 96° (E) 14:36:40 437.505
BEESAT 3 04 Dec 14:29:58 14:33:46 41° 54° (NE) 14:37:33 437.485
PCSat 04 Dec 14:30:48 14:32:46 12° 320° (NW) 14:34:44 145.827
BEESAT 04 Dec 14:33:01 14:36:58 26° 96° (E) 14:40:55 436.000
JUGNU 04 Dec 14:40:30 14:41:48 11° 183° (S) 14:43:07 437.505
ITAMSAT 1 04 Dec 14:47:51 14:53:04 77° 75° (ENE) 14:58:18 435.822/435.867
AO-7 04 Dec 14:51:12 14:59:20 63° 67° (ENE) 15:07:31 29.400- 29.500
BEESAT 2 04 Dec 14:55:01 14:58:46 35° 53° (NE) 15:02:29 435.950
ITUPSAT 1 04 Dec 14:58:55 15:03:31 47° 100° (E) 15:08:04 437.325
AUBIESAT-1 04 Dec 15:18:25 15:23:02 70° 105° (ESE) 15:27:26 437.475
M-CUBED/EXP-1 PRIME 04 Dec 15:29:00 15:33:43 74° 289° (WNW) 15:38:13 437.505
TISAT 1 04 Dec 15:31:39 15:33:40 13° 296° (WNW) 15:35:40 437.305
O/OREOS (USA 219) 04 Dec 15:33:18 15:35:09 12° 98° (E) 15:37:00 437.305
MOZHAYETS 4 04 Dec 15:55:11 15:59:34 45° 99° (E) 16:03:56
RS-15 04 Dec 16:01:04 16:12:47 44° 43° (NE) 16:24:09 29.354- 29.394
SWISSCUBE 04 Dec 16:06:19 16:10:28 31° 291° (WNW) 16:14:36 437.505
BEESAT 3 04 Dec 16:08:38 16:11:03 16° 250° (WSW) 16:13:27 437.485
BEESAT 04 Dec 16:10:34 16:14:43 31° 291° (WNW) 16:18:52 436.000
SRMSAT 04 Dec 16:15:56 16:17:07 11° 177° (S) 16:18:19 437.500
ITAMSAT 1 04 Dec 16:31:12 16:33:04 12° 270° (W) 16:34:56 435.822/435.867
BEESAT 2 04 Dec 16:33:26 16:36:18 19° 249° (WSW) 16:39:09 435.950
Cubesat XI-IV 04 Dec 16:37:12 16:39:35 13° 60° (ENE) 16:41:58 437.490
ITUPSAT 1 04 Dec 16:37:46 16:40:57 18° 296° (WNW) 16:44:08 437.325
KKS-1 04 Dec 16:38:37 16:43:02 54° 101° (E) 16:47:25 437.445
NOAA 15 04 Dec 16:39:58 16:42:55 15° 61° (ENE) 16:45:52 137.62
AO-7 04 Dec 16:45:46 16:52:32 28° 265° (W) 16:59:23 29.400- 29.500
STARS 04 Dec 16:49:55 16:53:55 32° 97° (E) 16:57:52 437.465
HORYU 2 04 Dec 16:49:57 16:54:17 51° 73° (ENE) 16:58:38 437.375
ISS 04 Dec 16:50:37 16:53:43 39° 136° (SE) 16:56:49 145.825
AUBIESAT-1 04 Dec 16:54:36 16:56:48 13° 303° (WNW) 16:58:57 437.475
GOMX 1 04 Dec 16:58:22 17:02:16 29° 68° (ENE) 17:06:25 467.674
LilacSat-2 04 Dec 17:03:18 17:05:39 16° 67° (ENE) 17:08:00 437.200
AIST 2 04 Dec 17:06:21 17:09:53 25° 49° (NE) 17:13:23 435.215
O/OREOS (USA 219) 04 Dec 17:09:29 17:13:59 59° 294° (WNW) 17:18:30 437.305
BRITE-PL 04 Dec 17:13:07 17:17:19 77° 258° (WSW) 17:21:50 437.365/2234.400
DOVE 4 04 Dec 17:18:17 17:21:51 21° 65° (ENE) 17:25:34 437.250
CUBESAT XI-V 04 Dec 17:29:49 17:34:28 66° 101° (E) 17:39:06 437.345
MOZHAYETS 4 04 Dec 17:33:25 17:36:21 17° 295° (WNW) 17:39:18
NOAA 18 04 Dec 17:42:59 17:47:57 35° 68° (ENE) 17:52:58 137.9125
CUTE-I 04 Dec 17:48:16 17:53:31 59° 73° (ENE) 17:58:48 437.470
CANX-2 04 Dec 18:11:00 18:11:36 10° 63° (ENE) 18:12:13 2200.000
Cubesat XI-IV 04 Dec 18:13:31 18:18:54 83° 257° (WSW) 18:24:19 437.490
RS-15 04 Dec 18:13:49 18:25:52 63° 247° (WSW) 18:37:29 29.354- 29.394
KKS-1 04 Dec 18:16:44 18:19:07 14° 296° (WNW) 18:21:30 437.445
NOAA 15 04 Dec 18:16:53 18:22:05 68° 258° (WSW) 18:27:20 137.62
STARS 04 Dec 18:26:39 18:30:03 22° 293° (WNW) 18:33:26 437.465
Cosmos 2491 04 Dec 18:27:25 18:36:01 59° 78° (ENE) 18:44:33 435.465 / 435.565
ISS 04 Dec 18:27:30 18:30:17 25° 333° (NNW) 18:33:07 145.825
HORYU 2 04 Dec 18:28:44 18:31:05 14° 268° (W) 18:33:28 437.375
LilacSat-2 04 Dec 18:36:07 18:39:39 34° 262° (W) 18:43:12 437.200
GOMX 1 04 Dec 18:36:37 18:40:20 25° 267° (W) 18:44:17 467.674
SEEDS 04 Dec 18:38:49 18:40:34 12° 65° (ENE) 18:42:20 437.485
AIST 2 04 Dec 18:44:36 18:48:22 32° 246° (WSW) 18:52:07 435.215
CINEMA 3 04 Dec 18:48:03 18:52:41 44° 72° (ENE) 18:57:27 145.822/145.860
STRAND 1 04 Dec 18:49:21 18:52:18 15° 92° (E) 18:55:14 437.568
COMPASS 1 04 Dec 18:52:51 18:54:18 12° 64° (ENE) 18:55:45 437.405
YUBILEINY 04 Dec 18:54:27 19:02:12 38° 86° (E) 19:10:00 435.215
DOVE 4 04 Dec 18:54:46 18:59:11 41° 263° (W) 19:03:54 437.250
HO-68 04 Dec 18:58:04 19:04:56 52° 68° (ENE) 19:11:51 435.675
CUBESAT XI-V 04 Dec 19:09:14 19:11:15 13° 297° (WNW) 19:13:18 437.345
Cosmos 2504 04 Dec 19:11:50 19:17:52 23° 80° (E) 19:24:07 435.465 / 435.565
CUBEBUG 2 04 Dec 19:18:25 19:22:12 24° 68° (ENE) 19:25:59 437.445
NOAA 18 04 Dec 19:23:49 19:28:36 30° 263° (W) 19:33:26 137.9125
CUTE 1.7 + AOD 2 04 Dec 19:25:02 19:29:12 63° 75° (ENE) 19:33:22 437.475
CUTE-I 04 Dec 19:30:35 19:33:55 17° 268° (W) 19:37:17 437.470
CANX-2 04 Dec 19:42:40 19:46:52 68° 259° (W) 19:51:05 2200.000
PCSat 04 Dec 19:50:25 19:52:57 13° 41° (NE) 19:55:29 145.827
Oscar 11 04 Dec 19:55:34 19:58:36 19° 67° (ENE) 20:01:38 145.826/435.025
AAUSAT CUBESAT 2 04 Dec 19:56:50 20:00:47 48° 74° (ENE) 20:04:45 437.432
UWE-3 04 Dec 20:03:40 20:08:06 45° 73° (ENE) 20:12:31 435.000/436.395/437.385
ISS 04 Dec 20:07:02 20:07:43 10° 352° (N) 20:08:24 145.825
SEEDS 04 Dec 20:11:42 20:15:47 54° 260° (W) 20:19:53 437.485
Cosmos 2491 04 Dec 20:25:13 20:32:13 28° 277° (W) 20:39:14 435.465 / 435.565
COMPASS 1 04 Dec 20:25:17 20:29:21 56° 260° (W) 20:33:25 437.405
CINEMA 3 04 Dec 20:26:29 20:30:00 20° 268° (W) 20:33:35 145.822/145.860
STRAND 1 04 Dec 20:26:49 20:31:50 58° 287° (WNW) 20:36:48 437.568
AIST 1 04 Dec 20:28:47 20:33:04 84° 94° (E) 20:37:25
RS-15 04 Dec 20:32:34 20:35:35 11° 267° (W) 20:38:34 29.354- 29.394
SO-50 04 Dec 20:41:05 20:45:47 60° 118° (ESE) 20:50:26 436.795
HO-68 04 Dec 20:46:54 20:52:53 29° 265° (W) 20:58:56 435.675
ZACube-1 04 Dec 20:48:21 20:52:55 84° 76° (ENE) 20:57:27 437.345
YUBILEINY 04 Dec 20:50:36 20:58:47 45° 285° (WNW) 21:07:05 435.215
CUBEBUG 2 04 Dec 20:54:17 20:58:36 34° 263° (W) 21:02:56 437.445
HUMSAT D 04 Dec 20:56:41 20:59:22 17° 67° (ENE) 21:02:02 437.325/437.525
FUNcube-1 04 Dec 20:57:01 21:01:35 85° 257° (WSW) 21:06:06 145.935
CUSAT 1 04 Dec 20:59:14 21:02:49 69° 81° (E) 21:07:30 437.405
Cosmos 2504 04 Dec 21:02:00 21:10:14 73° 279° (W) 21:19:03 435.465 / 435.565
PRISM 04 Dec 21:06:04 21:09:27 24° 96° (E) 21:12:50 437.425
DELFI C3 04 Dec 21:09:43 21:13:25 42° 73° (ENE) 21:17:08 145.870
DANDE 04 Dec 21:30:26 21:32:52 25° 79° (E) 21:35:40 436.750
Oscar 11 04 Dec 21:30:28 21:34:28 36° 262° (W) 21:38:28 145.826/435.025
PCSat 04 Dec 21:31:49 21:37:16 77° 61° (ENE) 21:42:41 145.827
AAUSAT CUBESAT 2 04 Dec 21:34:49 21:36:31 12° 269° (W) 21:38:12 437.432
TIGRISAT 04 Dec 21:41:34 21:43:09 12° 90° (E) 21:44:44 435.000
UWE-3 04 Dec 21:41:39 21:44:44 17° 268° (W) 21:47:47 435.000/436.395/437.385
ANTELSAT 04 Dec 21:42:14 21:44:15 13° 91° (E) 21:46:13 437.575/2403.000
ISS 04 Dec 21:43:59 21:45:25 12° 13° (NNE) 21:46:52 145.825
SO-50 04 Dec 22:23:15 22:26:37 19° 315° (NW) 22:29:58 436.795
CUBEBUG 1 04 Dec 22:28:09 22:30:42 15° 65° (ENE) 22:33:14 437.445
HUMSAT D 04 Dec 22:30:41 22:34:40 39° 262° (W) 22:38:37 437.325/437.525
VELOX 1 04 Dec 22:35:41 22:37:37 13° 63° (ENE) 22:39:34 145.980
PRISM 04 Dec 22:41:13 22:44:40 26° 291° (WNW) 22:48:07 437.425
UNISAT 6 04 Dec 22:45:19 22:49:44 70° 102° (ESE) 22:54:01 437.425
DELFI C3 04 Dec 22:46:39 22:48:26 13° 268° (W) 22:50:13 145.870
JAS-2 04 Dec 22:49:34 22:52:16 14° 92° (E) 22:55:00 435.910
DX 1 04 Dec 22:55:00 22:56:03 11° 62° (ENE) 22:57:07 434.975-435.025
50 SAT 04 Dec 22:59:42 23:01:39 14° 67° (ENE) 23:03:36 437.505
Cosmos 2504 04 Dec 23:01:20 23:05:23 14° 301° (WNW) 23:09:33 435.465 / 435.565
UKube-1 04 Dec 23:05:40 23:06:11 10° 62° (ENE) 23:06:43 .
TIGRISAT 04 Dec 23:15:54 23:20:13 56° 286° (WNW) 23:24:26 435.000
ANTELSAT 04 Dec 23:17:00 23:21:17 51° 287° (WNW) 23:25:27 437.575/2403.000
PCSat 04 Dec 23:17:28 23:19:56 13° 257° (WSW) 23:22:24 145.827
SPROUT 04 Dec 23:18:19 23:21:41 23° 68° (ENE) 23:25:05 437.525
ESTCUBE 1 04 Dec 23:19:15 23:23:43 88° 251° (WSW) 23:28:13 437.505/2401.250
ISS 04 Dec 23:19:30 23:22:39 39° 32° (NNE) 23:25:46 145.825
AISAT 04 Dec 23:32:12 23:36:30 55° 73° (ENE) 23:40:51 437.250
GONETS M04 04 Dec 23:36:01 23:40:08 14° 76° (ENE) 23:44:14
NANOSAT C BR1 04 Dec 23:42:24 23:46:03 28° 96° (E) 23:49:40 145.865
QB50P2 04 Dec 23:46:35 23:50:31 36° 98° (E) 23:54:24 145.880/145.840
POLYITAN 1 04 Dec 23:47:12 23:51:05 34° 98° (E) 23:54:56 437.675
QB50P1 05 Dec 00:00:33 00:04:41 49° 100° (E) 00:08:46 145.935-145.965
CUBEBUG 1 05 Dec 00:02:22 00:06:33 47° 261° (W) 00:10:48 437.445
DUCHIFAT 1 05 Dec 00:05:04 00:09:09 47° 99° (E) 00:13:11 145.980
Cosmos 2499 05 Dec 00:07:38 00:14:34 29° 82° (E) 00:21:44 435.465 / 435.565
VELOX 1 05 Dec 00:09:12 00:13:32 60° 259° (W) 00:17:55 145.980
POPSAT HIP 1 05 Dec 00:21:50 00:26:07 87° 106° (ESE) 00:30:19 437.405
UNISAT 6 05 Dec 00:24:46 00:25:47 11° 298° (WNW) 00:26:49 437.425
DX 1 05 Dec 00:27:18 00:31:37 71° 258° (WSW) 00:36:00 434.975-435.025
PHONESAT 2.4 05 Dec 00:28:20 00:29:38 13° 148° (SSE) 00:30:55 2401.200-2431.200
50 SAT 05 Dec 00:31:34 00:34:40 30° 262° (W) 00:37:49 437.505
JAS-2 05 Dec 00:32:40 00:37:46 61° 287° (WNW) 00:43:06 435.910
UKube-1 05 Dec 00:37:18 00:41:35 74° 258° (WSW) 00:45:55 .
M-CUBED/EXP-1 PRIME 05 Dec 00:42:36 00:44:01 11° 56° (NE) 00:45:26 437.505
TISAT 1 05 Dec 00:44:46 00:48:35 33° 71° (ENE) 00:52:25 437.305
SPROUT 05 Dec 00:53:42 00:57:26 29° 264° (W) 01:01:13 437.525
ISS 05 Dec 00:56:23 00:58:58 21° 228° (SW) 01:01:32 145.825
Oscar 19 05 Dec 00:58:34 01:01:55 17° 92° (E) 01:05:14 437.125/150
BUGSAT 1 05 Dec 01:07:49 01:12:02 86° 280° (W) 01:16:10 437.445
AISAT 05 Dec 01:11:21 01:13:17 13° 269° (W) 01:15:14 437.250
NANOSAT C BR1 05 Dec 01:18:17 01:21:38 23° 292° (WNW) 01:24:57 145.865
QB50P2 05 Dec 01:23:06 01:26:01 18° 294° (WNW) 01:28:56 145.880/145.840
POLYITAN 1 05 Dec 01:23:37 01:26:37 19° 293° (WNW) 01:29:36 437.675
GONETS M04 05 Dec 01:26:45 01:35:29 82° 95° (E) 01:44:12
SWISSCUBE 05 Dec 01:34:10 01:38:11 28° 68° (ENE) 01:42:13 437.505
QB50P1 05 Dec 01:37:48 01:40:00 14° 295° (WNW) 01:42:12 145.935-145.965
BEESAT 05 Dec 01:38:23 01:42:23 27° 68° (ENE) 01:46:23 436.000
O/OREOS (USA 219) 05 Dec 01:42:02 01:45:27 21° 58° (ENE) 01:48:51 437.305
DUCHIFAT 1 05 Dec 01:42:07 01:44:25 14° 295° (WNW) 01:46:41 145.980
Cosmos 2499 05 Dec 01:58:41 02:07:01 60° 282° (WNW) 02:15:49 435.465 / 435.565
PHONESAT 2.4 05 Dec 02:01:54 02:04:32 62° 163° (SSE) 02:07:10 2401.200-2431.200
AUBIESAT-1 05 Dec 02:02:39 02:06:41 69° 70° (ENE) 02:11:02 437.475
ITUPSAT 1 05 Dec 02:04:24 02:09:00 49° 72° (ENE) 02:13:37 437.325
M-CUBED/EXP-1 PRIME 05 Dec 02:13:47 02:17:45 71° 253° (WSW) 02:22:06 437.505
TISAT 1 05 Dec 02:21:15 02:24:17 19° 266° (W) 02:27:20 437.305
Gurwin Techsat 1B 05 Dec 02:21:38 02:26:51 55° 100° (E) 02:32:03 435.225
AO-85 05 Dec 02:24:17 02:29:08 51° 117° (ESE) 02:33:38 145.980
Oscar 19 05 Dec 02:36:28 02:41:32 54° 288° (WNW) 02:46:35 437.125/150
AO-7 05 Dec 02:55:24 03:01:16 20° 93° (E) 03:07:04 29.400- 29.500
MOZHAYETS 4 05 Dec 02:55:52 03:00:07 38° 71° (ENE) 03:04:21
ITAMSAT 1 05 Dec 03:02:17 03:06:45 29° 96° (E) 03:11:11 435.822/435.867
SWISSCUBE 05 Dec 03:11:43 03:15:52 29° 264° (W) 03:20:03 437.505
BEESAT 05 Dec 03:15:53 03:20:03 30° 263° (W) 03:24:14 436.000
O/OREOS (USA 219) 05 Dec 03:20:52 03:24:56 35° 255° (WSW) 03:29:00 437.305
GONETS M04 05 Dec 03:27:18 03:33:20 20° 295° (WNW) 03:39:24
KKS-1 05 Dec 03:35:24 03:39:38 43° 72° (ENE) 03:43:53 437.445
PHONESAT 2.4 05 Dec 03:37:11 03:39:49 62° 359° (N) 03:42:27 2401.200-2431.200
ITUPSAT 1 05 Dec 03:44:04 03:47:04 16° 267° (W) 03:50:06 437.325
STARS 05 Dec 03:45:34 03:49:14 26° 68° (ENE) 03:52:55 437.465
Cosmos 2499 05 Dec 03:59:54 04:02:16 11° 304° (WNW) 04:04:38 435.465 / 435.565
Gurwin Techsat 1B 05 Dec 04:02:43 04:06:21 19° 297° (WNW) 04:09:58 435.225
AO-85 05 Dec 04:06:06 04:09:46 21° 312° (NW) 04:13:15 145.980
CUBESAT XI-V 05 Dec 04:31:51 04:36:19 56° 74° (ENE) 04:40:49 437.345
MOZHAYETS 4 05 Dec 04:34:04 04:37:22 19° 267° (W) 04:40:41
ITAMSAT 1 05 Dec 04:41:35 04:46:10 32° 292° (WNW) 04:50:43 435.822/435.867
AO-7 05 Dec 04:46:23 04:54:47 80° 290° (WNW) 05:03:09 29.400- 29.500
GOMX 1 05 Dec 05:02:29 05:04:33 12° 88° (E) 05:06:38 467.674
YUBILEINY 05 Dec 05:06:34 05:12:01 17° 63° (ENE) 05:17:27 435.215
PHONESAT 2.4 05 Dec 05:12:28 05:15:07 71° 195° (SSW) 05:17:45 2401.200-2431.200
KKS-1 05 Dec 05:13:34 05:16:23 16° 267° (W) 05:19:12 437.445
SO-50 05 Dec 05:13:42 05:17:57 38° 52° (NE) 05:22:06 436.795
BRITE-PL 05 Dec 05:17:45 05:22:52 41° 98° (E) 05:28:10 437.365/2234.400
STARS 05 Dec 05:21:43 05:25:29 27° 264° (W) 05:29:16 437.465
Cosmos 2491 05 Dec 05:37:51 05:40:16 11° 74° (ENE) 05:42:41 435.465 / 435.565
BEESAT 3 05 Dec 05:56:03 05:59:55 74° 302° (WNW) 06:03:52 437.485
STRAND 1 05 Dec 06:03:58 06:07:46 21° 65° (ENE) 06:11:34 437.568
CUTE-I 05 Dec 06:07:00 06:11:21 25° 95° (E) 06:15:40 437.470
NOAA 18 05 Dec 06:07:14 06:10:28 16° 92° (E) 06:13:40 137.9125
LilacSat-2 05 Dec 06:10:32 06:13:40 24° 96° (E) 06:16:45 437.200
CUBESAT XI-V 05 Dec 06:11:52 06:14:02 13° 269° (W) 06:16:12 437.345
HORYU 2 05 Dec 06:18:06 06:22:32 68° 285° (WNW) 06:26:55 437.375
BEESAT 2 05 Dec 06:22:37 06:26:32 86° 295° (WNW) 06:30:32 435.950
RS-15 05 Dec 06:25:44 06:34:29 25° 100° (E) 06:43:28 29.354- 29.394
Cubesat XI-IV 05 Dec 06:32:03 06:37:07 43° 99° (E) 06:42:09 437.490
NOAA 15 05 Dec 06:33:03 06:38:11 49° 100° (E) 06:43:16 137.62
AIST 1 05 Dec 06:37:39 06:40:49 19° 73° (ENE) 06:43:56
GOMX 1 05 Dec 06:37:41 06:43:10 83° 284° (WNW) 06:48:40 467.674
AO-7 05 Dec 06:41:07 06:46:16 18° 309° (NW) 06:51:26 29.400- 29.500
CINEMA 3 05 Dec 06:46:29 06:48:03 11° 88° (E) 06:49:36 145.822/145.860
PHONESAT 2.4 05 Dec 06:48:26 06:50:04 15° 210° (SSW) 06:51:41 2401.200-2431.200
DOVE 4 05 Dec 06:54:09 06:59:26 63° 100° (E) 07:04:32 437.250
SO-50 05 Dec 06:54:43 06:58:08 22° 249° (WSW) 07:01:31 436.795
Cosmos 2504 05 Dec 06:56:25 07:04:42 43° 74° (ENE) 07:12:31 435.465 / 435.565
BRITE-PL 05 Dec 06:56:38 07:01:06 27° 292° (WNW) 07:05:43 437.365/2234.400
YUBILEINY 05 Dec 07:01:15 07:10:08 87° 83° (E) 07:19:00 435.215
CUTE 1.7 + AOD 2 05 Dec 07:13:06 07:14:32 11° 91° (E) 07:15:58 437.475
Cosmos 2491 05 Dec 07:26:40 07:35:22 71° 93° (E) 07:44:04 435.465 / 435.565
CANX-2 05 Dec 07:29:17 07:32:33 21° 94° (E) 07:35:47 2200.000
STRAND 1 05 Dec 07:41:41 07:46:36 45° 261° (W) 07:51:32 437.568
LilacSat-2 05 Dec 07:44:59 07:47:48 20° 291° (WNW) 07:50:36 437.200
NOAA 18 05 Dec 07:46:03 07:51:33 65° 288° (WNW) 07:57:00 137.9125
CUTE-I 05 Dec 07:46:33 07:51:28 39° 291° (WNW) 07:56:21 437.470
PRISM 05 Dec 07:55:18 07:57:42 15° 65° (ENE) 08:00:08 437.425
SEEDS 05 Dec 07:56:49 08:00:19 25° 95° (E) 08:03:47 437.485
BEESAT 2 05 Dec 08:04:36 08:04:58 10° 319° (NW) 08:05:20 435.950
COMPASS 1 05 Dec 08:09:26 08:12:47 23° 95° (E) 08:16:07 437.405
Cubesat XI-IV 05 Dec 08:12:43 08:16:54 24° 295° (WNW) 08:21:03 437.490
NOAA 15 05 Dec 08:13:44 08:17:34 21° 296° (WNW) 08:21:23 137.62
HO-68 05 Dec 08:14:07 08:21:15 60° 102° (ESE) 08:28:20 435.675
AIST 1 05 Dec 08:14:30 08:18:28 34° 269° (W) 08:22:27
GOMX 1 05 Dec 08:18:41 08:20:22 11° 300° (WNW) 08:22:05 467.674
CINEMA 3 05 Dec 08:20:53 08:25:42 67° 285° (WNW) 08:30:16 145.822/145.860
DOVE 4 05 Dec 08:33:14 08:36:30 17° 297° (WNW) 08:39:45 437.250
RS-15 05 Dec 08:33:38 08:45:24 84° 302° (WNW) 08:57:48 29.354- 29.394
ZACube-1 05 Dec 08:39:09 08:41:50 16° 92° (E) 08:44:29 437.345
TIGRISAT 05 Dec 08:39:46 08:41:13 11° 62° (ENE) 08:42:39 435.000
AIST 2 05 Dec 08:40:16 08:44:20 67° 119° (ESE) 08:48:28 435.215
ANTELSAT 05 Dec 08:40:29 08:42:22 12° 63° (ENE) 08:44:15 437.575/2403.000
CUBEBUG 2 05 Dec 08:46:02 08:50:22 55° 99° (E) 08:54:32 437.445
CUTE 1.7 + AOD 2 05 Dec 08:46:34 08:50:41 54° 286° (WNW) 08:54:47 437.475
FUNcube-1 05 Dec 08:47:14 08:50:12 18° 93° (E) 08:53:07 145.935
Cosmos 2504 05 Dec 08:49:59 08:57:58 41° 274° (W) 09:05:33 435.465 / 435.565
YUBILEINY 05 Dec 09:00:22 09:05:41 18° 282° (WNW) 09:11:01 435.215
CANX-2 05 Dec 09:04:44 09:08:23 29° 289° (WNW) 09:12:02 2200.000
AAUSAT CUBESAT 2 05 Dec 09:15:03 09:19:11 75° 284° (WNW) 09:23:19 437.432
Oscar 11 05 Dec 09:18:21 09:22:26 41° 98° (E) 09:26:30 145.826/435.025
Cosmos 2491 05 Dec 09:26:11 09:32:58 24° 293° (WNW) 09:39:47 435.465 / 435.565
PRISM 05 Dec 09:28:50 09:32:39 40° 261° (W) 09:36:31 437.425
UWE-3 05 Dec 09:30:42 09:35:01 72° 284° (WNW) 09:39:11 435.000/436.395/437.385
SEEDS 05 Dec 09:32:30 09:35:54 24° 291° (WNW) 09:39:18 437.485
UNISAT 6 05 Dec 09:42:22 09:46:57 54° 74° (ENE) 09:51:30 437.425
COMPASS 1 05 Dec 09:44:48 09:48:16 26° 290° (WNW) 09:51:44 437.405
CUSAT 1 05 Dec 10:02:08 10:05:32 85° 104° (ESE) 10:08:23 437.405
HO-68 05 Dec 10:02:43 10:08:27 27° 300° (WNW) 10:14:10 435.675
TIGRISAT 05 Dec 10:12:33 10:17:15 77° 259° (WSW) 10:21:56 435.000
ANTELSAT 05 Dec 10:13:47 10:18:28 71° 258° (WSW) 10:23:08 437.575/2403.000
ZACube-1 05 Dec 10:14:21 10:18:16 37° 288° (WNW) 10:22:07 437.345
HUMSAT D 05 Dec 10:14:59 10:18:39 32° 97° (E) 10:22:18 437.325/437.525
AIST 2 05 Dec 10:21:03 10:23:15 14° 317° (NW) 10:25:29 435.215
DELFI C3 05 Dec 10:22:17 10:26:16 84° 102° (ESE) 10:30:16 145.870
FUNcube-1 05 Dec 10:22:44 10:26:31 32° 289° (WNW) 10:30:14 145.935
CUBEBUG 2 05 Dec 10:24:22 10:26:26 13° 297° (WNW) 10:28:30 437.445
NANOSAT C BR1 05 Dec 10:33:53 10:36:55 19° 67° (ENE) 10:39:57 145.865
PCSat 05 Dec 10:34:13 10:34:56 10° 101° (ESE) 10:35:39 145.827
